Casa Grande, AZ

3:27 AM MST on November 23, 2017 (GMT -0700)
Casa Grande Municipal

Weather History for KCGZ - November, 2013

Change the Weather History Date:

Wednesday, November 13, 2013

  Actual Average Record
Temperature  
Mean Temperature 72 °F -  
Max Temperature 80 °F 71 °F 89 °F (1999)
Min Temperature 64 °F 44 °F 33 °F (2000)
Cooling Degree Days 7    
Growing Degree Days 22 (Base 50)    
Moisture  
Dew Point 41 °F    
Average Humidity 33    
Maximum Humidity 42    
Minimum Humidity 26    
Precipitation  
Precipitation 0.00 in - - ()
Sea Level Pressure  
Sea Level Pressure 30.07 in    
Wind  
Wind Speed 21 mph (ENE)    
Max Wind Speed 28 mph    
Max Gust Speed 34 mph    
Visibility 10 miles    
Events      
Averages and records for this station are not official NWS values.
T = Trace of Precipitation, MM = Missing Value Source: NWS Daily Summary

Daily Weather History Graph

Daily Weather History Graph

Search for Another Location

Airport or City:

Trip Planner

Search our weather history database for the weather conditions in past years. The results will help you decide how hot, cold, wet, or windy it might be!

Date:

Astronomy

Nov. 13, 2013 Rise Set
Actual Time 6:56 AM MST 5:26 PM MST
Civil Twilight 6:29 AM MST 5:52 PM MST
Nautical Twilight 6:00 AM MST 6:22 PM MST
Astronomical Twilight 5:30 AM MST 6:51 PM MST
Moon 3:05 PM MST (11/13) 3:04 AM MST (11/13)
Length of Visible Light 11h 22m
Length of Day
10h 30m
Waxing Gibbous, 85% of the Moon is Illuminated
Nov 13
Waxing Gibbous
Nov 17
Full
Nov 25
Last Quarter
Dec 2
New
Dec 9
First Quarter

Hourly Weather History & Observations

Time (MST) Temp. Dew Point Humidity Pressure Visibility Wind Dir Wind Speed Gust Speed Precip Events Conditions
12:15 AM 73.4 °F 37.4 °F 27% 30.13 in 10.0 mi ENE 21.9 mph 31.1 mph N/A   Clear
12:35 AM 73.4 °F 37.4 °F 27% 30.13 in 10.0 mi ENE 21.9 mph 31.1 mph N/A   Clear
12:55 AM 71.6 °F 37.4 °F 29% 30.13 in 10.0 mi ENE 24.2 mph 32.2 mph N/A   Clear
1:15 AM 71.6 °F 37.4 °F 29% 30.14 in 10.0 mi ENE 21.9 mph 27.6 mph N/A   Clear
1:35 AM 71.6 °F 37.4 °F 29% 30.14 in 10.0 mi ENE 19.6 mph - N/A   Clear
1:55 AM 71.6 °F 37.4 °F 29% 30.13 in 10.0 mi ENE 26.5 mph 33.4 mph N/A   Clear
2:15 AM 71.6 °F 39.2 °F 31% 30.13 in 10.0 mi ENE 21.9 mph 31.1 mph N/A   Clear
2:35 AM 69.8 °F 39.2 °F 33% 30.12 in 10.0 mi ENE 24.2 mph - N/A   Clear
2:55 AM 69.8 °F 39.2 °F 33% 30.12 in 10.0 mi ENE 25.3 mph 28.8 mph N/A   Clear
3:15 AM 69.8 °F 39.2 °F 33% 30.13 in 10.0 mi ENE 26.5 mph 33.4 mph N/A   Clear
3:35 AM 69.8 °F 39.2 °F 33% 30.13 in 10.0 mi ENE 23.0 mph 33.4 mph N/A   Clear
3:55 AM 68.0 °F 39.2 °F 35% 30.12 in 10.0 mi ENE 21.9 mph 28.8 mph N/A   Clear
4:15 AM 68.0 °F 39.2 °F 35% 30.13 in 10.0 mi ENE 21.9 mph 31.1 mph N/A   Clear
4:35 AM 66.2 °F 39.2 °F 37% 30.13 in 10.0 mi ENE 20.7 mph 28.8 mph N/A   Clear
4:55 AM 66.2 °F 39.2 °F 37% 30.12 in 10.0 mi ENE 20.7 mph - N/A   Clear
5:15 AM 66.2 °F 39.2 °F 37% 30.12 in 10.0 mi ENE 26.5 mph 34.5 mph N/A   Clear
5:35 AM 66.2 °F 41.0 °F 40% 30.12 in 10.0 mi ENE 27.6 mph 33.4 mph N/A   Clear
5:55 AM 66.2 °F 41.0 °F 40% 30.12 in 10.0 mi ENE 26.5 mph 33.4 mph N/A   Clear
6:15 AM 66.2 °F 41.0 °F 40% 30.12 in 10.0 mi ENE 24.2 mph 28.8 mph N/A   Clear
6:35 AM 66.2 °F 41.0 °F 40% 30.12 in 10.0 mi ENE 23.0 mph 29.9 mph N/A   Clear
6:55 AM 64.4 °F 41.0 °F 42% 30.12 in 10.0 mi ENE 21.9 mph 29.9 mph N/A   Clear
7:15 AM 64.4 °F 41.0 °F 42% 30.12 in 10.0 mi ENE 21.9 mph 25.3 mph N/A   Clear
7:35 AM 64.4 °F 41.0 °F 42% 30.14 in 10.0 mi ENE 20.7 mph 28.8 mph N/A   Clear
7:55 AM 66.2 °F 41.0 °F 40% 30.14 in 10.0 mi ENE 21.9 mph 27.6 mph N/A   Clear
8:15 AM 66.2 °F 41.0 °F 40% 30.14 in 10.0 mi ENE 23.0 mph 28.8 mph N/A   Clear
8:35 AM 66.2 °F 41.0 °F 40% 30.14 in 10.0 mi ENE 24.2 mph 29.9 mph N/A   Clear
8:55 AM 68.0 °F 41.0 °F 37% 30.15 in 10.0 mi ENE 19.6 mph 31.1 mph N/A   Clear
9:15 AM 69.8 °F 41.0 °F 35% 30.15 in 10.0 mi ENE 24.2 mph 29.9 mph N/A   Clear
9:35 AM 69.8 °F 41.0 °F 35% 30.14 in 10.0 mi ENE 25.3 mph 31.1 mph N/A   Clear
9:55 AM 71.6 °F 41.0 °F 33% 30.14 in 10.0 mi ENE 24.2 mph 31.1 mph N/A   Clear
10:15 AM 71.6 °F 42.8 °F 35% 30.13 in 10.0 mi ENE 23.0 mph 31.1 mph N/A   Clear
10:35 AM 73.4 °F 42.8 °F 33% 30.13 in 10.0 mi ENE 23.0 mph 31.1 mph N/A   Clear
10:55 AM 73.4 °F 42.8 °F 33% 30.12 in 10.0 mi ENE 26.5 mph 29.9 mph N/A   Clear
11:15 AM 75.2 °F 42.8 °F 31% 30.11 in 10.0 mi ENE 25.3 mph 31.1 mph N/A   Clear
11:35 AM 75.2 °F 42.8 °F 31% 30.10 in 10.0 mi ENE 21.9 mph 29.9 mph N/A   Clear
11:55 AM 77.0 °F 42.8 °F 29% 30.08 in 10.0 mi ENE 23.0 mph 27.6 mph N/A   Clear
12:15 PM 78.8 °F 42.8 °F 28% 30.07 in 10.0 mi ENE 20.7 mph - N/A   Clear
12:35 PM 78.8 °F 42.8 °F 28% 30.06 in 10.0 mi ENE 19.6 mph 25.3 mph N/A   Clear
12:55 PM 78.8 °F 42.8 °F 28% 30.04 in 10.0 mi ENE 18.4 mph 26.5 mph N/A   Clear
1:15 PM 80.6 °F 42.8 °F 26% 30.02 in 10.0 mi ENE 18.4 mph 24.2 mph N/A   Clear
1:35 PM 80.6 °F 42.8 °F 26% 30.02 in 10.0 mi NE 18.4 mph 21.9 mph N/A   Clear
1:55 PM 80.6 °F 42.8 °F 26% 30.01 in 10.0 mi ENE 17.3 mph - N/A   Clear
2:15 PM 80.6 °F 42.8 °F 26% 30.01 in 10.0 mi ENE 13.8 mph - N/A   Clear
2:35 PM 80.6 °F 42.8 °F 26% 30.01 in 10.0 mi NE 17.3 mph - N/A   Clear
2:55 PM 80.6 °F 42.8 °F 26% 30.00 in 10.0 mi NE 15.0 mph - N/A   Clear
3:15 PM 80.6 °F 42.8 °F 26% 30.01 in 10.0 mi NE 13.8 mph - N/A   Clear
3:35 PM 80.6 °F 42.8 °F 26% 30.01 in 10.0 mi NE 15.0 mph - N/A   Clear
3:55 PM 80.6 °F 42.8 °F 26% 30.01 in 10.0 mi NE 13.8 mph 19.6 mph N/A   Clear
4:15 PM 78.8 °F 42.8 °F 28% 30.00 in 10.0 mi NE 16.1 mph 20.7 mph N/A   Clear
4:35 PM 78.8 °F 42.8 °F 28% 30.00 in 10.0 mi ENE 13.8 mph - N/A   Clear
4:55 PM 78.8 °F 42.8 °F 28% 29.99 in 10.0 mi NE 11.5 mph - N/A   Clear
5:15 PM 77.0 °F 42.8 °F 29% 29.99 in 10.0 mi ENE 13.8 mph - N/A   Clear
5:35 PM 75.2 °F 42.8 °F 31% 29.98 in 10.0 mi ENE 12.7 mph - N/A   Clear
5:55 PM 75.2 °F 42.8 °F 31% 29.99 in 10.0 mi ENE 11.5 mph - N/A   Clear
6:15 PM 73.4 °F 42.8 °F 33% 29.99 in 10.0 mi ENE 9.2 mph - N/A   Clear
6:35 PM 73.4 °F 42.8 °F 33% 29.99 in 10.0 mi ENE 11.5 mph - N/A   Clear
6:55 PM 73.4 °F 42.8 °F 33% 30.00 in 10.0 mi ENE 9.2 mph - N/A   Clear
7:15 PM 71.6 °F 42.8 °F 35% 30.00 in 10.0 mi ENE 11.5 mph - N/A   Clear
7:35 PM 71.6 °F 42.8 °F 35% 29.99 in 10.0 mi ENE 11.5 mph - N/A   Clear
7:55 PM 71.6 °F 42.8 °F 35% 29.99 in 10.0 mi ENE 12.7 mph - N/A   Clear
8:15 PM 71.6 °F 42.8 °F 35% 30.00 in 10.0 mi ENE 13.8 mph - N/A   Clear
8:35 PM 71.6 °F 42.8 °F 35% 30.00 in 10.0 mi ENE 15.0 mph 21.9 mph N/A   Clear
8:55 PM 71.6 °F 41.0 °F 33% 30.00 in 10.0 mi ENE 13.8 mph - N/A   Clear
9:15 PM 69.8 °F 42.8 °F 38% 30.00 in 10.0 mi ENE 17.3 mph 20.7 mph N/A   Clear
9:35 PM 69.8 °F 41.0 °F 35% 30.00 in 10.0 mi ENE 13.8 mph - N/A   Clear
9:55 PM 69.8 °F 41.0 °F 35% 30.00 in 10.0 mi ENE 12.7 mph - N/A   Clear
10:15 PM 69.8 °F 41.0 °F 35% 30.00 in 10.0 mi ENE 16.1 mph - N/A   Clear
10:35 PM 69.8 °F 41.0 °F 35% - 10.0 mi North - - N/A   Clear
10:55 PM 68.0 °F 41.0 °F 37% 30.00 in 10.0 mi ENE 12.7 mph - N/A   Clear
11:15 PM 68.0 °F 41.0 °F 37% 30.01 in 10.0 mi ENE 13.8 mph - N/A   Clear
11:35 PM 68.0 °F 41.0 °F 37% 30.00 in 10.0 mi ENE 13.8 mph - N/A   Clear
11:55 PM 68.0 °F 41.0 °F 37% 30.00 in 10.0 mi ENE 13.8 mph - N/A   Clear